Wind_Speed
19 18 18 18 18 19 18 18 18 17 16 16 16 16 15 15 15 15 15 14 13 13 12 12 12 11 11 12 12 11 12 11 12 11 11 10 10 11 11 11 11 10 10
21 21 21 19 19 19 19 18 17 17 17 17 17 17 16 16 16 16 16 15 14 13 13 12 12 12 12 12 12 12 12 12 12 11 11 10 10 11 11 11 12 11 11
23 22 21 20 20 20 20 19 18 18 18 18 18 18 17 17 17 17 17 17 16 15 15 14 14 14 13 13 13 13 13 13 13 12 11 11 11 11 12 12 12 12 12
23 22 22 21 21 21 21 20 19 19 19 19 18 18 19 19 18 18 18 18 18 17 16 17 17 16 15 14 14 14 14 14 13 13 12 12 12 12 12 12 12 12 13
24 23 22 22 22 21 21 20 20 20 20 19 19 19 19 19 19 19 19 19 19 18 18 17 17 17 16 16 16 16 16 15 15 14 14 14 14 13 13 13 12 12 13
24 24 23 23 22 22 22 21 21 21 21 20 20 20 20 20 20 19 18 19 19 19 18 17 17 17 17 17 17 17 17 17 16 16 16 15 15 15 14 14 14 14 14
24 24 24 23 23 23 22 22 21 21 21 21 22 21 21 21 20 20 19 19 19 18 18 18 18 18 18 19 18 18 18 18 17 17 17 17 16 16 15 15 16 16 15
25 24 23 23 24 23 23 23 22 22 22 22 22 22 21 21 21 20 19 19 19 18 18 18 19 19 19 19 19 19 20 20 19 19 18 18 17 17 17 17 16 16 16
25 24 24 24 25 24 24 24 24 24 23 23 23 23 22 22 21 20 20 20 20 18 18 18 18 19 19 19 20 20 21 21 21 20 19 19 18 18 17 18 18 17 16
26 26 25 25 25 25 25 26 26 25 25 25 24 24 23 22 22 20 20 19 20 20 19 19 19 18 19 20 20 20 20 21 21 21 20 19 19 19 19 18 19 18 17
26 26 26 26 25 26 27 27 26 26 26 26 26 25 24 23 22 21 21 21 22 22 21 21 21 20 20 20 20 19 19 20 20 20 20 20 19 20 20 20 20 19 19
26 27 27 27 27 27 28 27 26 26 27 27 26 26 26 25 24 23 22 22 23 23 23 22 22 22 22 21 21 21 20 20 20 20 20 21 21 21 21 21 20 20 20
27 27 26 27 28 28 28 28 28 27 27 28 27 26 26 26 25 25 24 24 23 23 23 23 23 22 22 22 22 21 21 20 20 20 20 21 21 21 22 22 22 22 22
26 27 27 27 27 28 29 29 29 28 27 27 27 26 26 26 25 25 25 25 24 24 23 23 23 23 22 22 22 22 22 22 22 22 22 22 22 21 21 22 22 23 23
26 26 26 26 26 28 28 29 27 27 26 26 26 26 25 25 25 25 25 24 24 24 24 24 24 23 23 23 23 23 23 23 23 23 22 22 21 21 22 22 22 22 23
26 27 27 26 27 27 28 27 26 26 25 25 25 25 25 25 24 24 24 24 24 24 24 24 24 24 24 24 24 23 23 23 23 23 22 22 23 22 22 22 22 23 23
27 28 28 26 26 27 26 26 25 25 24 24 24 24 24 24 24 24 23 23 24 24 24 24 24 24 24 24 24 23 23 24 24 23 23 23 24 23 23 24 24 24 24
27 28 28 27 27 26 26 25 25 24 24 24 24 24 24 23 23 23 23 23 23 23 24 23 23 23 23 24 24 24 24 24 24 24 24 24 24 24 25 25 25 25 25
28 27 27 27 27 26 26 26 26 25 25 24 25 24 24 23 23 22 23 23 22 22 23 23 23 23 23 24 24 24 24 24 24 24 24 24 25 25 26 26 26 26 26
25 26 27 27 27 27 26 25 25 25 25 24 24 24 23 23 22 22 21 22 22 22 23 23 23 23 23 24 24 24 24 24 24 24 25 25 26 26 27 27 26 27 28
24 25 26 26 26 26 25 24 24 23 24 24 23 23 22 22 22 22 22 22 22 23 23 22 22 23 24 24 25 24 24 24 24 24 25 25 25 26 27 27 27 28 29
24 24 24 25 25 24 23 23 22 22 22 22 22 22 22 22 22 22 22 21 21 21 21 21 22 22 23 24 24 24 23 24 24 25 25 25 25 26 26 27 28 28 28
24 24 24 23 23 22 21 20 21 21 21 21 21 21 22 22 22 21 22 22 21 21 21 21 22 22 22 23 23 24 24 24 25 25 25 25 25 25 25 26 26 27 27
24 24 22 22 21 20 19 19 19 20 20 20 20 21 21 21 21 21 21 21 21 21 20 21 21 22 22 22 22 22 22 23 24 24 24 24 24 24 25 26 26 27 27
22 22 21 20 20 20 19 19 19 19 19 20 20 21 21 21 21 21 21 21 22 22 21 21 21 22 22 22 23 23 23 24 24 24 24 24 25 26 26 27 27 28 28
21 20 20 20 20 20 19 19 19 19 19 19 20 20 21 21 21 21 21 21 23 23 22 23 23 23 23 23 23 24 24 24 24 24 24 25 25 26 27 27 27 28 28
Wind_Direction
282 285 285 286 286 287 289 290 290 290 288 289 292 292 291 292 294 296 299 300 301 298 292 287 283 281 281 276 273 272 274 277 279 279 276 268 261 258 256 254 257 258 261
279 282 284 282 283 285 286 286 287 287 287 287 288 289 289 289 289 291 292 293 295 294 288 285 281 279 278 276 273 271 273 278 278 277 275 273 264 257 257 258 260 261 264
280 280 283 282 282 281 280 282 285 284 285 286 286 287 288 289 287 287 288 289 289 289 286 279 277 277 274 274 272 271 275 277 275 273 271 268 264 260 260 262 262 262 264
278 278 278 277 278 277 275 277 280 281 283 284 283 284 286 286 286 284 286 286 285 284 280 280 280 277 275 272 270 268 273 274 272 271 270 268 265 264 262 263 262 265 265
276 278 276 277 277 276 274 274 274 276 279 281 282 282 282 284 284 284 285 285 284 284 279 278 277 274 273 274 272 269 271 270 270 269 269 270 266 264 263 260 261 265 269
280 279 278 277 276 275 276 274 273 274 277 278 280 281 281 282 282 284 285 283 282 283 281 277 276 274 274 275 275 273 272 270 269 270 269 270 266 262 260 259 261 264 266
281 278 277 275 274 274 275 273 271 275 277 278 279 280 281 282 282 281 282 283 282 281 277 276 277 276 276 275 274 271 270 271 270 270 269 268 265 261 261 261 262 265 264
282 278 274 273 272 273 273 274 272 274 277 277 279 280 279 279 280 280 280 282 282 280 278 276 275 274 274 274 273 271 270 270 270 270 271 269 265 263 261 261 262 263 261
283 280 276 273 272 272 271 272 272 272 274 275 277 278 277 279 280 280 280 280 280 279 279 276 274 274 275 276 274 272 271 271 271 269 270 272 269 265 264 264 263 264 264
281 280 277 274 272 271 271 273 273 272 273 274 275 276 275 276 278 278 281 281 282 282 280 276 276 277 277 275 274 275 273 274 273 271 270 269 268 268 268 267 266 265 265
281 279 277 275 272 270 270 270 271 272 272 273 273 274 274 274 277 278 280 282 283 284 282 281 278 278 278 277 276 276 275 276 274 270 268 267 267 266 266 265 266 266 265
277 276 276 274 272 271 271 269 272 271 271 271 272 273 273 273 274 276 277 279 281 282 282 281 280 277 276 276 275 276 276 276 275 271 268 267 265 264 262 262 263 265 266
277 275 275 273 273 272 271 270 270 269 270 270 270 271 272 272 273 274 274 277 277 276 276 277 279 279 276 274 274 275 275 274 273 272 269 267 265 266 263 262 262 264 266
277 277 276 275 274 273 272 270 268 268 268 268 268 269 270 271 272 273 273 274 273 271 271 273 275 276 276 274 273 275 275 273 271 270 269 267 266 266 264 263 262 263 265
279 279 277 276 275 274 273 271 269 269 269 268 268 268 267 269 270 272 272 273 270 269 270 271 271 272 273 273 274 275 275 274 271 270 268 266 266 266 265 265 264 265 265
278 278 279 278 275 273 273 272 270 269 267 267 267 266 266 267 268 270 271 271 271 270 271 271 269 270 273 274 275 275 274 273 271 269 267 265 265 265 264 265 266 266 267
277 277 276 277 276 275 274 273 273 270 268 266 265 265 266 266 267 269 270 271 271 271 271 272 271 270 271 273 274 275 274 272 270 267 266 265 265 263 263 264 265 266 267
279 276 275 275 275 274 274 275 273 271 268 265 264 264 264 265 267 268 268 269 270 270 270 270 270 271 272 272 274 274 273 273 270 268 268 265 264 263 264 265 265 267 267
280 279 277 276 276 275 275 274 273 272 270 266 264 263 263 264 265 267 269 269 268 270 270 269 270 272 272 273 274 275 274 274 271 269 267 266 264 263 265 265 266 266 266
280 280 279 278 278 276 273 272 271 270 269 267 265 264 264 264 264 265 268 270 270 270 270 271 271 272 273 274 274 274 276 275 274 270 268 267 266 265 265 265 265 266 267
280 282 282 279 278 277 274 272 271 268 267 265 264 264 264 263 264 265 267 269 270 270 271 272 273 273 274 274 275 276 276 275 274 271 268 267 267 267 265 265 265 267 267
281 282 283 281 279 278 275 274 271 268 265 263 262 263 264 264 264 265 268 270 271 271 270 271 273 274 275 275 276 276 277 277 276 274 271 269 268 268 267 267 267 268 268
280 282 282 281 280 277 275 273 270 268 265 262 261 263 262 264 265 267 267 267 270 271 270 271 273 276 276 276 277 278 279 278 277 276 273 270 268 268 268 268 268 269 270
277 280 282 280 279 276 273 272 271 270 266 261 260 261 263 265 267 266 268 269 273 272 272 274 275 276 277 276 276 279 281 280 279 276 273 270 269 270 270 270 269 270 271
278 279 279 281 277 275 274 272 271 269 266 263 262 262 263 265 267 269 269 272 276 275 274 274 276 278 279 278 279 281 281 279 278 275 272 271 271 271 272 270 270 270 271
275 275 275 277 278 276 274 272 268 267 266 264 263 264 263 265 266 268 271 274 277 275 273 273 275 278 280 280 279 280 281 280 279 277 274 273 272 273 274 272 270 270 271
Height
5864 5864 5863 5863 5863 5862 5862 5861 5860 5859 5859 5859 5858 5858 5857 5857 5856 5855 5854 5854 5853 5852 5852 5852 5852 5852 5852 5853 5853 5853 5854 5854 5854 5854 5854 5855 5855 5856 5856 5857 5858 5859 5859
5860 5860 5860 5859 5859 5858 5858 5858 5857 5856 5856 5855 5855 5855 5854 5853 5853 5852 5851 5851 5850 5850 5849 5849 5849 5850 5850 5850 5850 5851 5851 5851 5851 5851 5851 5852 5853 5853 5854 5855 5855 5856 5857
5856 5855 5855 5855 5855 5854 5854 5854 5853 5853 5852 5852 5852 5851 5850 5850 5850 5849 5848 5848 5847 5847 5846 5846 5846 5847 5847 5847 5848 5848 5849 5849 5849 5849 5849 5850 5850 5850 5851 5852 5852 5853 5854
5851 5850 5850 5850 5850 5850 5850 5849 5849 5849 5848 5848 5848 5847 5847 5846 5846 5845 5845 5844 5843 5843 5843 5843 5843 5843 5844 5844 5845 5845 5846 5846 5846 5846 5846 5847 5847 5848 5848 5849 5849 5850 5850
5846 5846 5846 5845 5845 5845 5845 5845 5845 5845 5844 5844 5843 5843 5843 5842 5842 5841 5841 5840 5840 5839 5839 5839 5839 5839 5840 5841 5841 5842 5842 5843 5843 5844 5844 5844 5844 5845 5845 5846 5847 5847 5847
5842 5841 5841 5841 5841 5840 5840 5840 5840 5840 5839 5839 5839 5839 5838 5838 5838 5837 5837 5836 5836 5836 5835 5835 5835 5836 5836 5837 5838 5838 5839 5839 5840 5840 5840 5841 5841 5841 5842 5843 5843 5844 5844
5837 5837 5836 5836 5836 5835 5835 5835 5834 5835 5835 5835 5834 5834 5834 5834 5833 5833 5833 5832 5832 5832 5832 5832 5832 5832 5832 5833 5833 5834 5835 5835 5835 5836 5836 5837 5837 5838 5838 5839 5840 5840 5841
5832 5831 5831 5831 5830 5830 5830 5829 5829 5830 5830 5830 5830 5829 5829 5829 5828 5828 5828 5828 5827 5827 5827 5828 5828 5828 5828 5828 5829 5829 5830 5830 5831 5831 5832 5832 5833 5833 5834 5835 5836 5836 5837
5827 5826 5825 5825 5825 5824 5824 5824 5824 5825 5825 5824 5824 5824 5824 5823 5823 5823 5824 5823 5823 5823 5823 5823 5823 5823 5824 5824 5824 5824 5825 5825 5826 5827 5827 5828 5828 5829 5829 5830 5831 5832 5833
5821 5820 5819 5819 5819 5819 5819 5818 5818 5818 5819 5819 5819 5818 5818 5818 5818 5818 5819 5818 5818 5819 5819 5819 5819 5818 5819 5819 5819 5820 5820 5820 5821 5821 5822 5823 5824 5824 5825 5826 5826 5827 5828
5815 5814 5813 5812 5812 5812 5812 5812 5812 5813 5813 5813 5813 5813 5813 5813 5813 5813 5814 5814 5814 5814 5814 5814 5814 5814 5814 5814 5815 5815 5815 5815 5815 5816 5817 5818 5818 5819 5820 5821 5821 5822 5823
5808 5807 5806 5806 5806 5806 5805 5804 5805 5806 5806 5806 5806 5807 5807 5807 5808 5808 5808 5808 5808 5808 5809 5809 5809 5809 5809 5809 5809 5810 5810 5810 5810 5811 5812 5812 5813 5814 5815 5815 5816 5817 5817
5801 5800 5800 5799 5799 5799 5799 5799 5799 5799 5799 5799 5800 5800 5801 5801 5802 5802 5802 5802 5802 5803 5803 5803 5803 5803 5803 5803 5803 5804 5804 5805 5805 5805 5806 5807 5808 5808 5809 5810 5810 5811 5812
5795 5794 5793 5792 5792 5792 5792 5792 5792 5792 5791 5792 5793 5794 5794 5795 5795 5795 5796 5796 5796 5797 5797 5797 5798 5798 5798 5798 5798 5798 5798 5799 5799 5799 5800 5801 5802 5802 5803 5803 5804 5805 5806
5789 5787 5786 5786 5785 5785 5784 5784 5784 5785 5785 5785 5786 5787 5788 5788 5789 5789 5789 5790 5790 5791 5791 5791 5792 5792 5792 5792 5792 5792 5792 5792 5793 5793 5794 5794 5795 5796 5797 5797 5798 5799 5800
5782 5781 5779 5779 5779 5778 5777 5777 5777 5778 5778 5779 5779 5780 5781 5782 5782 5783 5783 5783 5784 5784 5784 5785 5785 5785 5786 5786 5786 5785 5785 5785 5786 5786 5787 5788 5789 5790 5791 5791 5792 5792 5793
5774 5773 5773 5772 5771 5771 5771 5770 5770 5770 5771 5771 5772 5773 5774 5775 5775 5776 5776 5777 5777 5778 5778 5778 5779 5779 5779 5779 5779 5779 5779 5779 5779 5780 5780 5781 5782 5783 5784 5784 5785 5786 5786
5767 5766 5766 5765 5764 5764 5764 5763 5763 5763 5764 5764 5765 5766 5767 5768 5769 5769 5770 5770 5770 5771 5771 5772 5772 5772 5772 5772 5772 5772 5772 5772 5772 5773 5773 5774 5775 5776 5777 5777 5778 5779 5779
5760 5759 5758 5757 5757 5756 5756 5756 5756 5756 5756 5757 5758 5759 5760 5761 5762 5763 5763 5764 5764 5765 5765 5765 5765 5765 5765 5765 5765 5765 5765 5765 5765 5765 5766 5766 5767 5768 5769 5770 5771 5771 5772
5753 5752 5751 5750 5749 5748 5748 5748 5748 5749 5750 5750 5751 5752 5754 5755 5756 5757 5757 5758 5758 5758 5758 5759 5759 5759 5758 5758 5758 5758 5758 5757 5757 5758 5758 5759 5759 5760 5761 5762 5762 5763 5764
5747 5745 5744 5742 5741 5740 5739 5740 5741 5742 5743 5744 5745 5746 5747 5749 5750 5751 5752 5752 5752 5752 5752 5752 5752 5752 5752 5751 5751 5751 5750 5750 5750 5750 5751 5751 5751 5752 5753 5753 5754 5755 5755
5740 5739 5737 5735 5734 5732 5732 5732 5734 5735 5736 5737 5739 5740 5741 5742 5743 5744 5745 5746 5746 5746 5746 5746 5745 5745 5745 5744 5744 5744 5743 5743 5743 5743 5743 5743 5744 5744 5744 5745 5746 5746 5747
5734 5733 5731 5729 5728 5727 5727 5727 5728 5729 5729 5731 5732 5734 5735 5736 5737 5738 5739 5740 5740 5739 5739 5739 5739 5739 5738 5738 5738 5737 5736 5736 5735 5735 5735 5735 5735 5736 5736 5737 5738 5738 5738
5728 5727 5725 5724 5723 5723 5722 5723 5723 5723 5724 5725 5726 5728 5729 5730 5731 5732 5733 5733 5733 5733 5733 5733 5733 5732 5732 5731 5731 5730 5729 5729 5728 5727 5727 5727 5728 5728 5729 5729 5730 5730 5730
5722 5721 5720 5720 5719 5718 5718 5718 5718 5718 5719 5720 5721 5723 5724 5725 5725 5726 5727 5727 5728 5727 5727 5727 5726 5726 5725 5725 5724 5723 5723 5721 5721 5720 5720 5720 5721 5721 5721 5721 5721 5721 5722
5716 5716 5715 5714 5714 5714 5713 5713 5713 5713 5714 5715 5716 5717 5718 5719 5719 5720 5721 5721 5721 5721 5720 5720 5720 5719 5718 5717 5717 5716 5715 5714 5714 5713 5713 5713 5713 5713 5713 5713 5713 5713 5713